Regional Weather Roundup
Issued by NWS

Home | Current Version | Previous Version | Graphics & Text | Print | Product List | Glossary On
Versions: 1 2 3 4 5 6 7 8 9 10 11 12 13 14 15 16 17 18 19 20 21 22 23 24 25 26 27 28 29 30 31 32 33 34 35 36 37 38 39 40 41 42 43 44 45 46 47 48 49 50
836
ASUS43 KLSX 300359
RWRMO

WEATHER SUMMARY FOR MISSOURI
NATIONAL WEATHER SERVICE SPRINGFIELD MO
1100 PM CDT MON MAY 29 2017

NOTE: "FAIR" INDICATES FEW OR NO CLOUDS BELOW 12,000 FEET WITH NO
       SIGNIFICANT WEATHER AND/OR OBSTRUCTIONS TO VISIBILITY.
       CURRENT SKY AND/OR WEATHER CONDITIONS ARE NOT AVAILABLE FOR
       CHILLICOTHE AND FARMINGTON.

MOZ001>031-035>038-043-044-053-054-300500-
...NORTHERN AND WESTERN MISSOURI...

CITY           SKY/WX    TMP DP  RH WIND       PRES   REMARKS
KANSAS CTY INT CLEAR     63  44  50 N8        30.03R
KANSAS C DTWN  CLEAR     68  49  50 N6        30.02R
LEE`S SUMMIT   PTCLDY    67  49  52 N3        30.03R
ST JOSEPH      CLEAR     58  46  64 N6        30.03R
CHILLICOTHE      N/A     58  52  80 CALM      30.02R
KIRKSVILLE     CLEAR     54  32  43 NW5       30.00R

$$
MOZ066>068-077>081-088>096-101>105-300500-
...SOUTHWEST MISSOURI...

CITY           SKY/WX    TMP DP  RH WIND       PRES   REMARKS
SPRINGFIELD    CLEAR     65  59  81 S3        30.03R
JOPLIN         CLEAR     65  59  81 CALM      30.04R

$$
MOZ032>034-039>042-045>050-055>058-069>072-300500-
...CENTRAL MISSOURI...

CITY           SKY/WX    TMP DP  RH WIND       PRES   REMARKS
COLUMBIA       PTCLDY    63  56  78 CALM      30.01R
JEFFERSON CITY CLEAR     65  56  72 CALM      30.00R
ROLLA          PTCLDY    63  53  70 CALM      30.01R
SEDALIA        CLEAR     66  55  67 CALM      30.02R
WHITEMAN AFB   CLEAR     64  54  68 CALM      30.00R
WARRENSBURG    CLEAR     59  52  77 NW5       30.01R
OSAGE BEACH    PTCLDY    60  58  92 CALM      30.03R

$$
MOZ051-052-059>065-300500-
...EAST CENTRAL MISSOURI...

CITY           SKY/WX    TMP DP  RH WIND       PRES   REMARKS
ST LOUIS INTL  PTCLDY    67  59  75 W3        29.99R
SPIRIT OF STL  MOCLDY    62  61  96 CALM      29.98R
ST CHARLES     PTCLDY    65  56  72 CALM      29.97R

$$
MOZ072>076-082>087-097>100-106>115-300500-
...SOUTH CENTRAL AND SOUTHEAST MISSOURI...

CITY           SKY/WX    TMP DP  RH WIND       PRES   REMARKS
CAPE GIRARDEAU PTCLDY    72  59  63 NW6       29.98R
FARMINGTON     CLEAR     63  59  87 CALM      30.02R
POPLAR BLUFF   PTCLDY    70  63  78 NW3       29.99R
WEST PLAINS    CLEAR     63  59  87 CALM      30.05R

$$




USA.gov is the U.S. government's official web portal to all federal, state and local government web resources and services.